Regional Weather Roundup
Issued by NWS

Home | Current Version | Previous Version | Graphics & Text | Print | Product List | Glossary On
Versions: 1 2 3 4 5 6 7 8 9 10 11 12 13 14 15 16 17 18 19 20 21 22 23 24 25 26 27 28 29 30 31 32 33 34 35 36 37 38 39 40 41 42 43 44 45 46 47 48 49 50
000
ASUS43 KBIS 242202
RWRND

NORTH DAKOTA REGIONAL WEATHER ROUNDUP
NATIONAL WEATHER SERVICE BISMARCK ND
500 PM CDT SUN SEP 24 2017

NOTE: "FAIR" INDICATES FEW OR NO CLOUDS BELOW 12,000 FEET WITH NO
SIGNIFICANT WEATHER AND/OR OBSTRUCTIONS TO VISIBILITY.


NDZ001>003-009>011-017-242300-
NORTHWEST NORTH DAKOTA

CITY           SKY/WX    TMP DP  RH WIND       PRES   REMARKS
WILLISTON      LGT RAIN  48  41  76 N5        30.12R
MINOT          CLOUDY    50  45  83 NW10      30.05S
MINOT AFB      CLOUDY    50  44  81 NW14      30.04S
$$

NDZ018>021-031>035-040>046-242300-
SOUTHWEST NORTH DAKOTA

CITY           SKY/WX    TMP DP  RH WIND       PRES   REMARKS
BISMARCK       CLOUDY    52  47  83 N13G18    30.04S
DICKINSON      CLOUDY    45  43  93 NW10      30.08R FOG
GARRISON         N/A     50  44  80 NW15      30.06R
HETTINGER ARPT CLOUDY    47  42  83 NW13      30.09S
$$

NDZ004>008-012>016-024-026-027-054-242300-
NORTHEAST NORTH DAKOTA

CITY           SKY/WX    TMP DP  RH WIND       PRES   REMARKS
GRAND FORKS    LGT RAIN  53  52  96 N21G28    29.90R FOG
GRND FRKS AFB  CLOUDY    54  54 100 N14       29.91F
DEVILS LAKE    CLOUDY    48  46  93 N15       29.98S
$$

NDZ022-023-025-028>030-036>039-047>053-242300-
SOUTHEAST NORTH DAKOTA

CITY           SKY/WX    TMP DP  RH WIND       PRES   REMARKS
FARGO          CLOUDY    54  53  97 NW14      29.90R
JAMESTOWN      CLOUDY    51  47  86 NW17      29.96R
$$




USA.gov is the U.S. government's official web portal to all federal, state and local government web resources and services.